DW6059 Weather Reports


Display with metric or nautical units.
time (UTC)temp
F
wind
direction
speed
MPH
gust
MPH
rain 1hr
in
rain 24hr
in
rain mn
in
humidity
%
barometer
mb
20260510173055 84 292 1.0 2.0 0.00 0.00 0.00 45 1013.1
20260510171552 83 290 1.0 2.0 0.00 0.00 0.00 52 1013.2
20260510170043 83 150 1.0 4.0 0.00 0.00 0.00 43 1013.3
20260510164546 82 287 0.0 2.0 0.00 0.00 0.00 50 1013.5
20260510163039 82 303 1.0 3.0 0.00 0.00 0.00 45 1013.5
20260510161535 80 262 0.0 2.0 0.00 0.00 0.00 58 1013.6
20260510160036 80 294 0.0 3.0 0.00 0.00 0.00 59 1013.6
20260510154540 79 288 0.0 2.0 0.00 0.00 0.00 56 1013.9
20260510153038 80 129 0.0 2.0 0.00 0.00 0.00 58 1014.0
20260510151529 78 229 0.0 1.0 0.00 0.00 0.00 58 1014.1
20260510150026 77 241 1.0 2.0 0.00 0.00 0.00 64 1014.1
20260510144528 75 264 0.0 2.0 0.00 0.00 0.00 64 1014.0
20260510143030 73 311 0.0 1.0 0.00 0.00 0.00 66 1013.9
20260510141518 73 251 0.0 2.0 0.00 0.00 0.00 71 1013.8
20260510140014 72 223 1.0 3.0 0.00 0.00 0.00 75 1013.9
20260510134511 71 314 0.0 2.0 0.00 0.00 0.00 75 1013.9
20260510133009 69 243 0.0 2.0 0.00 0.00 0.00 82 1013.8
20260510131504 68 218 1.0 2.0 0.00 0.00 0.00 83 1013.7
20260510130058 65 210 0.0 1.0 0.00 0.00 0.00 88 1013.5
20260510124559 63 266 0.0 2.0 0.00 0.00 0.00 91 1013.2
20260510123102 61 150 0.0 0.0 0.00 0.00 0.00 92 1013.3
20260510121554 60 150 0.0 0.0 0.00 0.00 0.00 92 1013.2
20260510120054 60 150 0.0 0.0 0.00 0.00 0.00 92 1013.1
20260510114551 60 150 0.0 0.0 0.00 0.00 0.00 92 1013.0
20260510113049 59 150 0.0 1.0 0.00 0.00 0.00 92 1012.8
20260510111547 59 150 0.0 1.0 0.00 0.00 0.00 92 1012.5
20260510110050 59 150 0.0 0.0 0.00 0.00 0.00 92 1012.2
20260510104544 59 150 0.0 0.0 0.00 0.00 0.00 92 1012.0
20260510103043 59 150 0.0 0.0 0.00 0.00 0.00 92 1011.8
20260510101540 59 150 0.0 0.0 0.00 0.00 0.00 92 1011.7
20260510100036 59 150 0.0 0.0 0.00 0.00 0.00 91 1011.4
20260510094534 59 150 0.0 0.0 0.00 0.00 0.00 91 1011.3
20260510093033 59 150 0.0 0.0 0.00 0.00 0.00 91 1011.2
20260510091532 59 150 0.0 0.0 0.00 0.00 0.00 91 1010.8
20260510090032 59 150 0.0 0.0 0.00 0.00 0.00 91 1011.0
20260510084529 60 150 0.0 0.0 0.00 0.00 0.00 91 1010.7
20260510083027 60 150 0.0 0.0 0.00 0.00 0.00 91 1010.8
20260510081532 60 150 0.0 0.0 0.00 0.00 0.00 90 1010.6
20260510080031 60 150 0.0 0.0 0.00 0.00 0.00 90 1010.4
20260510074525 60 150 0.0 0.0 0.00 0.00 0.00 89 1010.4
20260510073030 61 150 0.0 0.0 0.00 0.00 0.00 89 1010.4
20260510071520 61 150 0.0 1.0 0.00 0.00 0.00 89 1010.3
20260510070019 61 224 0.0 0.0 0.00 0.00 0.00 89 1010.3
20260510064520 61 224 0.0 0.0 0.00 0.00 0.00 89 1010.3
20260510063023 61 224 0.0 0.0 0.00 0.00 0.00 89 1010.3
20260510061515 62 224 0.0 0.0 0.00 0.00 0.00 88 1010.3
20260510060019 62 224 0.0 0.0 0.00 0.00 0.00 87 1010.4
20260510054513 62 224 0.0 0.0 0.00 0.00 0.00 87 1010.5
20260510053013 63 224 0.0 0.0 0.00 0.00 0.00 86 1010.7
20260510051509 64 166 0.0 3.0 0.00 0.00 0.00 85 1010.8
20260510050006 63 319 0.0 3.0 0.00 0.00 0.00 87 1010.7
20260510044507 62 208 0.0 0.0 0.00 0.00 0.00 88 1010.7
20260510043003 62 208 0.0 0.0 0.00 0.00 0.00 88 1010.7
20260510041600 62 209 0.0 0.0 0.00 0.00 0.00 87 1010.7
20260510040110 62 208 0.0 1.0 0.00 0.00 0.00 87 1010.6
20260510034600 62 208 0.0 0.0 0.00 0.00 0.00 87 1010.5
20260510033055 62 209 0.0 0.0 0.00 0.00 0.00 86 1010.4
20260510031558 63 209 0.0 0.0 0.00 0.00 0.00 86 1010.3
20260510030055 63 209 0.0 0.0 0.00 0.00 0.00 86 1010.2
20260510024555 63 209 0.0 1.0 0.00 0.00 0.00 85 1010.3
20260510023054 63 209 0.0 1.0 0.00 0.00 0.00 85 1010.2
20260510021557 63 210 0.0 1.0 0.00 0.00 0.00 84 1010.1
20260510020057 64 210 0.0 1.0 0.00 0.00 0.00 82 1009.9
20260510014554 65 210 0.0 1.0 0.00 0.00 0.00 81 1009.7
20260510013051 66 210 0.0 0.0 0.00 0.00 0.00 80 1009.6
20260510011552 67 210 0.0 0.0 0.00 0.00 0.00 77 1009.3
20260510010051 68 210 0.0 1.0 0.00 0.00 0.00 75 1009.6
20260510004550 68 156 0.0 2.0 0.00 0.00 0.00 74 1009.4
20260510003052 69 178 0.0 2.0 0.00 0.00 0.00 73 1009.4
20260510001552 69 165 0.0 1.0 0.00 0.00 0.00 71 1008.8
20260510000051 70 211 0.0 1.0 0.00 0.00 0.00 69 1008.8
20260509234549 71 121 1.0 4.0 0.00 0.00 0.00 66 1008.5
20260509233052 72 229 0.0 4.0 0.00 0.00 0.00 64 1008.3
20260509231549 73 158 1.0 7.0 0.00 0.00 0.00 63 1008.3
20260509230046 74 154 1.0 4.0 0.00 0.00 0.00 59 1008.3
20260509224553 76 220 0.0 2.0 0.00 0.00 0.00 60 1008.4
20260509223038 76 224 0.0 3.0 0.00 0.00 0.00 57 1008.3
20260509221539 76 231 1.0 6.0 0.00 0.00 0.00 56 1008.3
20260509220034 76 229 0.0 6.0 0.00 0.00 0.00 57 1008.3
20260509214533 75 172 2.0 8.0 0.00 0.00 0.00 57 1008.3
20260509213032 74 169 0.0 3.0 0.00 0.00 0.00 59 1008.2
20260509211530 75 220 1.0 3.0 0.00 0.00 0.00 56 1008.3
20260509210032 75 219 2.0 7.0 0.00 0.00 0.00 54 1008.1
20260509204529 77 316 1.0 3.0 0.00 0.00 0.00 55 1008.0
20260509203025 76 338 0.0 3.0 0.00 0.00 0.00 59 1008.0
20260509201523 74 254 0.0 3.0 0.00 0.00 0.00 60 1008.3
20260509200022 74 181 0.0 5.0 0.00 0.00 0.00 58 1008.3
20260509194520 73 222 0.0 1.0 0.00 0.00 0.00 65 1008.5
20260509193018 74 105 0.0 3.0 0.00 0.00 0.00 62 1008.6
20260509191516 74 116 0.0 3.0 0.00 0.00 0.00 61 1008.8
20260509190015 74 193 1.0 5.0 0.00 0.00 0.00 59 1008.9
20260509184613 75 242 2.0 6.0 0.00 0.00 0.00 57 1008.9
20260509183014 76 210 1.0 4.0 0.00 0.00 0.00 55 1009.1
20260509181509 75 221 2.0 6.0 0.00 0.00 0.00 57 1009.6
20260509180007 75 136 1.0 4.0 0.00 0.00 0.00 54 1009.8
20260509174506 74 191 1.0 6.0 0.00 0.00 0.00 53 1009.8